TIME,DELAY(SENSOR),PRES,OXYGEN,RAWTEMP,T(OPTODE),TCPHASE,FLUOR,BETA(BETA700),BETA(BETA412),BETA(BETA440),CDOM,C(CSC),ED(ED412.40),ED(ED444.00),ED(ED489.70),ED(ED554.30),LU(LU411.80),LU(LU443.40),LU(LU489.60),LU(LU554.10),COMP,TILTX,TILTY,CHECK
1369194612,5807,800.5100097656250000,41.9689292907714840,655.4174804687500000,4.7787189483642580,54.6490707397460940,52,99,88,78,79,14888,2147752612,2147423460,2148012333,2147876041,2147640813,2147063817,2148258724,2147201206,1741,4,13,17922
1369198208,5810,844.8300170898438000,45.6578407287597660,660.2020263671875000,4.6213212013244630,54.1646995544433600,52,100,86,79,80,14889,2147755200,2147427026,2148010477,2147875264,2147638784,2147057106,2148252900,2147196598,3462,4,13,29507
1369201808,5809,857.4899902343750000,46.3567390441894500,662.5043945312500000,4.5454878807067870,54.0876502990722660,53,100,88,78,80,14890,2147752905,2147424704,2148008987,2147874258,2147641334,2147056694,2148254299,2147200036,539,4,13,13324
1369205408,5809,875.6300048828125000,47.5178794860839840,664.0645141601562000,4.4940719604492190,53.9435501098632800,52,99,83,79,79,14889,2147752923,2147423872,2148011245,2147873572,2147641572,2147055597,2148258596,2147199762,3237,4,13,14197
1369209008,5808,879.2600097656250000,48.8942794799804700,665.3380126953125000,4.4520797729492190,53.7663383483886700,53,97,84,79,80,14886,2147755821,2147423826,2148008621,2147874486,2147640777,2147053970,2148260096,2147196553,3548,4,13,32850
1369212608,5809,875.7800292968750000,48.7609291076660160,665.9846801757812000,4.4307479858398440,53.7906303405761700,52,117,85,79,81,14889,2147754697,2147422646,2148011840,2147874724,2147637677,2147055542,2148259931,2147197714,787,4,13,43823
1369216208,5811,910.7100219726562000,50.0708084106445300,668.4647827148438000,4.3488960266113280,53.6397094726562500,52,100,85,80,79,14891,2147758500,2147424009,2148010386,2147874852,2147641325,2147052525,2148257563,2147199378,3511,4,13,28859
1369219808,5806,920.4000244140625000,49.3681907653808600,667.3228149414062000,4.3865947723388670,53.7222785949707000,53,98,87,78,79,14884,2147753179,2147428169,2148010349,2147872731,2147640667,2147055076,2148257746,2147201216,113,4,14,44062
1369223408,5808,926.0800170898438000,49.2338790893554700,666.5142211914062000,4.4132771492004395,53.7335510253906250,52,96,86,77,80,14888,2147753197,2147424941,2148009142,2147875190,2147642971,2147055661,2148256658,2147200402,3347,4,13,10157
1369227008,5810,951.7600097656250000,48.9611701965332000,668.1510009765625000,4.3592572212219240,53.7943115234375000,52,99,90,79,79,14886,2147752777,2147427584,2148010404,2147874587,2147642395,2147057947,2148256914,2147201344,48,4,13,56410
1369230608,5809,950.0499877929688000,49.3665008544921900,668.0712280273438000,4.3618907928466800,53.7326507568359400,52,97,87,78,80,14888,2147753024,2147426724,2148009417,2147874971,2147640182,2147056877,2148259492,2147196580,77,4,13,23577
1369234208,5804,948.1900024414062000,50.0241889953613300,668.3239746093750000,4.3535461425781250,53.6425209045410160,52,95,86,78,79,14886,2147754093,2147422646,2148007369,2147878144,2147642240,2147057545,2148260571,2147199332,3540,4,13,58629
1369237808,5809,964.7199707031250000,50.7063789367675800,670.8134765625000000,4.2713217735290530,53.5820007324218750,52,97,88,78,79,14885,2147752694,2147425280,2148009179,2147874971,2147641179,2147049947,2148255177,2147196589,858,4,13,27278
1369241408,5809,956.5800170898438000,50.9275588989257800,672.8275756835938000,4.2047438621521000,53.5778388977050800,52,97,86,78,79,14887,2147752704,2147421522,2148011254,2147873499,2147640740,2147052964,2148258752,2147198299,850,4,13,11375
1369245008,5805,961.7600097656250000,49.9140281677246100,673.7324829101562000,4.1748180389404300,53.7302894592285160,52,98,85,78,80,14886,2147753380,2147424987,2148006656,2147871872,2147640557,2147057490,2148260443,2147198902,400,4,13,51642
1369248608,5807,991.0599975585938000,50.1972389221191400,676.3668823242188000,4.0876450538635250,53.7223396301269500,52,98,83,79,80,14886,2147751926,2147424566,2148011428,2147875949,2147642742,2147049956,2148258084,2147202377,173,4,13,41057
1369252208,5807,998.9400024414062000,50.3739700317382800,676.6215209960938000,4.0792160034179690,53.7041587829589840,52,99,87,78,80,14882,2147757083,2147425737,2148009161,2147874852,2147642176,2147057261,2148260205,2147202633,324,4,13,12786
1369255808,5806,1001.0100097656250000,50.6433181762695300,676.0521850585938000,4.0980610847473145,53.6563682556152340,52,100,89,77,80,14884,2147754011,2147427410,2148011657,2147876288,2147644918,2147055488,2148261138,2147199780,3494,4,13,49989
1369259408,5811,997.5800170898438000,50.5827789306640600,676.4937133789062000,4.0834469795227050,53.6724891662597660,52,99,86,78,80,14883,2147757787,2147423469,2148011620,2147876662,2147643044,2147052333,2148259254,2147196772,3426,4,13,27370
1369263008,5808,993.6900024414062000,50.3967285156250000,676.5582275390625000,4.0813121795654300,53.7000694274902340,52,100,85,78,80,14884,2147754514,2147424448,2148010413,2147876635,2147644077,2147051666,2148258340,2147195510,269,4,13,59050
1369266608,5811,1008.3599853515625000,50.2600402832031250,674.9984741210938000,4.1329350471496580,53.6976318359375000,52,98,83,80,80,14886,2147755474,2147424027,2148006866,2147876480,2147642331,2147062180,2148259529,2147198592,520,4,13,7287
1369270208,5808,997.8200073242188000,49.5205993652343750,675.5181884765625000,4.1157360076904300,53.8045692443847660,52,98,85,80,80,14886,2147756434,2147423908,2148008859,2147874029,2147641792,2147052068,2148253888,2147196571,521,4,13,47516
1369273808,5810,1003.1900024414062000,50.3970413208007800,675.9824829101562000,4.1003680229187010,53.6879005432128900,53,99,84,79,80,14884,2147752457,2147421787,2148009572,2147874432,2147642953,2147055433,2148259446,2147198034,2752,4,13,46140
1369277408,5810,1006.5100097656250000,49.4055709838867200,674.4758300781250000,4.1502299308776855,53.8069190979003900,52,100,85,78,79,14880,2147755684,2147422592,2148013824,2147876562,2147642697,2147052516,2148261778,2147199405,720,4,13,65473
1369281008,5808,1002.8599853515625000,49.5981903076171900,675.3886108398438000,4.1200261116027830,53.7914390563964840,51,99,86,78,79,14880,2147755300,2147421266,2148006893,2147875748,2147643218,2147051465,2148258779,2147197449,491,4,13,1070
1369284608,5809,1003.1199951171875000,49.9777183532714840,675.2692260742188000,4.1239781379699710,53.7409210205078100,52,100,88,78,80,14880,2147753536,2147424886,2148011702,2147875702,2147644589,2147058313,2148255424,2147198418,2851,4,13,20139
1369288208,5809,1000.7800292968750000,50.3438491821289060,676.0518798828125000,4.0980720520019530,53.7015190124511700,52,97,88,77,81,14880,2147753078,2147423762,2148011318,2147874989,2147643721,2147051620,2148262308,2147199268,8,4,13,15649
1369291808,5810,1005.5000000000000000,50.4841194152832000,675.9337768554688000,4.1019802093505860,53.6796989440918000,53,99,87,78,80,14882,2147754267,2147422153,2148008356,2147875739,2147640722,2147049856,2148258971,2147198720,442,4,13,16729
1369295408,5808,1003.4199829101562000,50.4537010192871100,675.9442749023438000,4.1016349792480470,53.6857795715332000,52,98,89,81,80,14879,2147754066,2147422491,2148010944,2147874185,2147640548,2147052461,2148259446,2147197330,469,4,13,35927
1369299008,5807,1004.2700195312500000,49.7557983398437500,675.4180908203125000,4.1190509796142580,53.7710418701171900,52,99,88,77,80,14881,2147756041,2147423533,2148011364,2147871990,2147643254,2147055259,2148259821,2147202770,3266,4,13,59006
1369302608,5807,1003.3200073242188000,50.3006286621093750,676.1491088867188000,4.0948538780212400,53.7057189941406250,52,105,85,78,81,14852,2147756114,2147426002,2148009490,2147875346,2147639460,2147051602,2148261677,2147196699,3276,4,13,3959
1369306208,5804,1009.2700195312500000,50.3249015808105500,676.2796020507812000,4.0905342102050780,53.7027702331543000,51,98,86,78,80,14879,2147757001,2147422756,2148008640,2147875337,2147644443,2147060772,2148257901,2147200182,3582,4,13,48490
1369309808,5809,1004.7899780273438000,49.8775787353515600,676.0739135742188000,4.0973429679870605,53.7613296508789060,53,96,84,78,81,14880,2147754523,2147425929,2148009170,2147875894,2147642157,2147050102,2148258889,2147200594,3553,4,13,45827
1369313408,5808,1009.4500122070312000,49.7006683349609400,675.0883789062500000,4.1299610137939450,53.7733383178710940,52,100,83,78,79,14875,2147753874,2147424822,2148006957,2147873097,2147639469,2147060260,2148258980,2147198116,638,4,13,49074
1369317008,5809,1005.7199707031250000,49.6720008850097660,675.5446166992188000,4.1148638725280760,53.7877998352050800,52,99,85,80,80,14875,2147754386,2147425197,2148007323,2147875190,2147645696,2147056841,2148263305,2147203538,3457,4,13,3774
1369320608,5809,1008.8300170898438000,49.7962799072265600,675.5206909179688000,4.1156558990478520,53.7676811218261700,52,97,82,79,80,14875,2147756132,2147426697,2148010834,2147874971,2147643501,2147052333,2148261888,2147199305,108,4,13,23896
1369324208,5809,1012.9899902343750000,49.9420700073242200,675.4185791015625000,4.1190338134765625,53.7486801147460940,52,99,86,78,79,14874,2147757037,2147422464,2148009353,2147873106,2147639972,2147055332,2148259017,2147197741,3493,4,13,235
1369327808,5808,1009.3200073242188000,49.5194511413574200,674.9633178710938000,4.1341018676757810,53.7973594665527340,52,100,84,91,80,14870,2147756342,2147422006,2148009179,2147873920,2147641307,2147054272,2148257563,2147200374,612,4,13,34975
1369331408,5811,1011.2100219726562000,50.1374397277832000,675.4719238281250000,4.1172699928283690,53.7188796997070300,52,98,86,79,80,14866,2147756397,2147422637,2148008649,2147874889,2147643172,2147049956,2148265078,2147199488,2941,4,13,57463
1369335008,5807,1011.6300048828125000,50.1272392272949200,675.1799926757812000,4.1269302368164060,53.7200202941894500,52,96,84,80,81,14870,2147754267,2147424923,2148014144,2147876233,2147640822,2147049920,2148256082,2147201910,3320,4,13,22976
1369338608,5809,1003.6099853515625000,49.6052284240722660,675.9251708984375000,4.1022658348083500,53.8023109436035160,51,100,85,79,79,14868,2147753097,2147421577,2148010395,2147876964,2147642029,2147054198,2148257152,2147198473,374,4,13,64050
1369339855,5810,1007.8300170898438000,49.6305809020996100,676.1890869140625000,4.0935292243957520,53.8011894226074200,52,97,87,79,81,14869,2147757284,2147424393,2148009526,2147875858,2147642724,2147056118,2148259318,2147199414,147,4,13,37538
